Location: Centerville
(32.8776°N, 96.6203°W)
Time: 15:19:38
(UTC+00:00)

Cosmos 676 Rocket - Pass Details

Date: 17 June 2021
Orbit: 754 x 784 km, 74.0° (Epoch: 26 July)

Event Time Altitude Azimuth Distance (km) Brightness Sun altitude
Rises 02:51:36 0° 349° (N) 3,274 8.1 -13.8°
Reaches altitude 10° 02:54:04 10° 355° (N) 2,344 7.2 -14.2°
Maximum altitude 02:59:15 51° 71° (ENE) 986 4.4 -15.0°
Enters shadow 03:02:12 24° 135° (SE) 1,566 5.0 -15.5°
